St. Paul Lake Elmo, MN

7:32 PM CST on November 11, 2019 (GMT -0600)
St. Paul Lake Elmo

Weather History for K21D - September, 2019

Change the Weather History Date:

Sunday, September 15, 2019

  Actual Average (KSTP) Record (KSTP)
Temperature  
Mean Temperature 66 °F -  
Max Temperature 78 °F 71 °F 91 °F (2018)
Min Temperature 53 °F 51 °F 36 °F (2011)
Growing Degree Days 16 (Base 50)    
Moisture  
Dew Point 62 °F    
Average Humidity 89    
Maximum Humidity 100    
Minimum Humidity 57    
Precipitation  
Precipitation 0.00 in - - ()
Sea Level Pressure  
Sea Level Pressure 29.99 in    
Wind  
Wind Speed 0 mph (WSW)    
Max Wind Speed 6 mph    
Max Gust Speed -    
Visibility 7 miles    
Events Fog    
Averages and records for this station are not official NWS values.
T = Trace of Precipitation, MM = Missing Value Source: NWS Daily Summary

Daily Weather History Graph

Daily Weather History Graph

Search for Another Location

Airport or City:

Astronomy

Sep. 15, 2019 Rise Set
Actual Time 6:49 AM CDT 7:22 PM CDT
Civil Twilight 6:20 AM CDT 7:52 PM CDT
Nautical Twilight 5:45 AM CDT 8:26 PM CDT
Astronomical Twilight 5:09 AM CDT 9:03 PM CDT
Moon 8:28 PM CDT (9/15) 8:01 AM CDT (9/15)
Length of Visible Light 13h 31m
Length of Day
12h 32m
Full, 98% of the Moon is Illuminated
Sep 15
Full
Sep 21
Last Quarter
Sep 28
New
Oct 5
First Quarter
Oct 13
Full

Hourly Weather History & Observations

Time (CDT) Temp. Dew Point Humidity Pressure Visibility Wind Dir Wind Speed Gust Speed Precip Events Conditions
12:15 AM 60.8 °F 60.8 °F 100% 29.98 in 10.0 mi Calm Calm - N/A   Overcast
12:35 AM 60.8 °F 60.8 °F 100% 29.97 in 10.0 mi Calm Calm - N/A   Overcast
12:36 AM 60.8 °F 60.8 °F 100% 29.97 in 10.0 mi Calm Calm - N/A   Overcast
12:55 AM 60.8 °F 60.8 °F 100% 29.97 in 10.0 mi Calm Calm - N/A   Overcast
12:56 AM 60.8 °F 60.8 °F 100% 29.97 in 10.0 mi Calm Calm - N/A   Overcast
1:18 AM 60.8 °F 60.8 °F 100% 29.97 in 10.0 mi Calm Calm - N/A   Overcast
1:37 AM 60.8 °F 60.8 °F 100% 29.97 in 10.0 mi Calm Calm - N/A   Mostly Cloudy
1:56 AM 59.0 °F 59.0 °F 100% 29.97 in 10.0 mi Calm Calm - N/A   Overcast
2:15 AM 59.0 °F 59.0 °F 100% 29.97 in 10.0 mi Calm Calm - N/A   Overcast
2:35 AM 59.0 °F 59.0 °F 100% 29.97 in 10.0 mi Calm Calm - N/A   Mostly Cloudy
2:39 AM 59.0 °F 59.0 °F 100% 29.97 in 10.0 mi Calm Calm - N/A   Mostly Cloudy
2:57 AM 59.0 °F 59.0 °F 100% 29.97 in 10.0 mi Calm Calm - N/A   Mostly Cloudy
3:16 AM 59.0 °F 59.0 °F 100% 29.96 in 10.0 mi Calm Calm - N/A   Scattered Clouds
3:35 AM 57.2 °F 57.2 °F 100% 29.96 in 1.0 mi Calm Calm - N/A   Mostly Cloudy
3:36 AM 59.0 °F 59.0 °F 100% 29.97 in 0.8 mi Calm Calm - N/A   Mostly Cloudy
3:55 AM 57.2 °F 57.2 °F 100% 29.96 in 0.5 mi Calm Calm - N/A Fog Fog
3:59 AM 57.2 °F 57.2 °F 100% 29.96 in 2.0 mi Calm Calm - N/A   Overcast
4:16 AM 57.2 °F 57.2 °F 100% 29.96 in 2.0 mi Calm Calm - N/A   Overcast
4:35 AM 55.4 °F 55.4 °F 100% 29.96 in 0.2 mi Calm Calm - N/A Fog Fog
4:36 AM 55.4 °F 55.4 °F 100% 29.96 in 0.2 mi Calm Calm - N/A Fog Fog
4:55 AM 55.4 °F 55.4 °F 100% 29.96 in 0.5 mi Calm Calm - N/A Fog Fog
4:56 AM 55.4 °F 55.4 °F 100% 29.96 in 0.5 mi Calm Calm - N/A Fog Fog
5:15 AM 55.4 °F 55.4 °F 100% 29.96 in 10.0 mi Calm Calm - N/A   Overcast
5:20 AM 55.4 °F 55.4 °F 100% 29.96 in 10.0 mi Calm Calm - N/A   Overcast
5:37 AM 55.4 °F 55.4 °F 100% 29.96 in 1.2 mi Calm Calm - N/A   Overcast
5:55 AM 55.4 °F 55.4 °F 100% 29.96 in 0.8 mi Calm Calm - N/A   Overcast
6:15 AM 55.4 °F 55.4 °F 100% 29.97 in 0.8 mi Calm Calm - N/A   Overcast
6:16 AM 55.4 °F 55.4 °F 100% 29.97 in 0.8 mi Calm Calm - N/A   Overcast
6:35 AM 53.6 °F 53.6 °F 100% 29.97 in 0.8 mi Calm Calm - N/A   Overcast
6:36 AM 53.6 °F 53.6 °F 100% 29.97 in 0.5 mi Calm Calm - N/A Fog Fog
6:59 AM 55.4 °F 55.4 °F 100% 29.97 in 0.2 mi Calm Calm - N/A Fog Fog
7:16 AM 55.4 °F 55.4 °F 100% 29.97 in 0.2 mi Calm Calm - N/A Fog Fog
7:35 AM 55.4 °F 55.4 °F 100% 29.97 in 0.5 mi Calm Calm - N/A Fog Fog
7:36 AM 55.4 °F 55.4 °F 100% 29.97 in 0.5 mi Calm Calm - N/A Fog Fog
7:55 AM 55.4 °F 55.4 °F 100% 29.98 in 7.0 mi Calm Calm - N/A   Scattered Clouds
7:56 AM 55.4 °F 55.4 °F 100% 29.98 in 7.0 mi Calm Calm - N/A   Scattered Clouds
8:15 AM 59.0 °F 59.0 °F 100% 29.98 in 10.0 mi Calm Calm - N/A   Mostly Cloudy
8:19 AM 59.0 °F 59.0 °F 100% 29.99 in 10.0 mi Calm Calm - N/A   Mostly Cloudy
8:38 AM 60.8 °F 60.8 °F 100% 29.99 in 10.0 mi Calm Calm - N/A   Overcast
8:55 AM 62.6 °F 62.6 °F 100% 30.00 in 10.0 mi Calm Calm - N/A   Overcast
9:15 AM 62.6 °F 62.6 °F 100% 30.00 in 10.0 mi Calm Calm - N/A   Overcast
9:16 AM 62.6 °F 62.6 °F 100% 30.00 in 10.0 mi Calm Calm - N/A   Overcast
9:35 AM 62.6 °F 62.6 °F 100% 30.00 in 10.0 mi Calm Calm - N/A   Overcast
9:36 AM 62.6 °F 62.6 °F 100% 30.00 in 10.0 mi Calm Calm - N/A   Overcast
9:59 AM 64.4 °F 64.4 °F 100% 30.01 in 10.0 mi WSW 3.5 mph - N/A   Overcast
10:16 AM 64.4 °F 64.4 °F 100% 30.01 in 10.0 mi Calm Calm - N/A   Overcast
10:35 AM 66.2 °F 64.4 °F 94% 30.02 in 10.0 mi Calm Calm - N/A   Overcast
10:36 AM 66.2 °F 64.4 °F 94% 30.02 in 10.0 mi Calm Calm - N/A   Overcast
10:55 AM 68.0 °F 64.4 °F 88% 30.02 in 10.0 mi Calm Calm - N/A   Overcast
11:15 AM 68.0 °F 64.4 °F 88% 30.02 in 7.0 mi Calm Calm - N/A   Overcast
11:37 AM 69.8 °F 66.2 °F 88% 30.02 in 7.0 mi Calm Calm - N/A   Overcast
11:56 AM 71.6 °F 66.2 °F 83% 30.02 in 5.0 mi Calm Calm - N/A   Haze
12:15 PM 71.6 °F 66.2 °F 83% 30.02 in 7.0 mi Calm Calm - N/A   Scattered Clouds
12:16 PM 71.6 °F 68.0 °F 88% 30.02 in 7.0 mi Calm Calm - N/A   Scattered Clouds
12:39 PM 73.4 °F 68.0 °F 83% 30.02 in 7.0 mi Calm Calm - N/A   Scattered Clouds
12:56 PM 73.4 °F 68.0 °F 83% 30.02 in 7.0 mi Calm Calm - N/A   Mostly Cloudy
1:15 PM 75.2 °F 68.0 °F 78% 30.02 in 7.0 mi WSW 3.5 mph - N/A   Scattered Clouds
1:16 PM 75.2 °F 68.0 °F 78% 30.02 in 7.0 mi Calm Calm - N/A   Scattered Clouds
1:35 PM 77.0 °F 68.0 °F 74% 30.02 in 7.0 mi Calm Calm - N/A   Clear
1:58 PM 77.0 °F 68.0 °F 74% 30.01 in 7.0 mi Calm Calm - N/A   Clear
2:16 PM 77.0 °F 68.0 °F 74% 30.01 in 10.0 mi Calm Calm - N/A   Clear
2:36 PM 78.8 °F 68.0 °F 69% 30.00 in 7.0 mi Calm Calm - N/A   Clear
2:55 PM 78.8 °F 66.2 °F 65% 30.00 in 4.0 mi Calm Calm - N/A   Haze
2:56 PM 78.8 °F 66.2 °F 65% 30.00 in 5.0 mi Calm Calm - N/A   Haze
3:15 PM 78.8 °F 64.4 °F 61% 30.00 in 7.0 mi Calm Calm - N/A   Clear
3:37 PM 78.8 °F 64.4 °F 61% 29.99 in 7.0 mi WSW 3.5 mph - N/A   Clear
3:56 PM 78.8 °F 64.4 °F 61% 29.99 in 10.0 mi Calm Calm - N/A   Clear
4:15 PM 78.8 °F 64.4 °F 61% 29.99 in 10.0 mi Calm Calm - N/A   Clear
4:16 PM 78.8 °F 64.4 °F 61% 29.99 in 10.0 mi WSW 4.6 mph - N/A   Clear
4:35 PM 78.8 °F 62.6 °F 57% 29.99 in 10.0 mi Calm Calm - N/A   Clear
4:36 PM 78.8 °F 62.6 °F 57% 29.99 in 10.0 mi Calm Calm - N/A   Clear
4:59 PM 78.8 °F 62.6 °F 57% 29.99 in 10.0 mi WSW 3.5 mph - N/A   Clear
5:16 PM 78.8 °F 62.6 °F 57% 29.99 in 10.0 mi WSW 4.6 mph - N/A   Clear
5:35 PM 78.8 °F 62.6 °F 57% 29.99 in 7.0 mi WSW 5.8 mph - N/A   Clear
5:36 PM 78.8 °F 62.6 °F 57% 29.99 in 7.0 mi WSW 5.8 mph - N/A   Clear
5:55 PM 78.8 °F 62.6 °F 57% 29.99 in 7.0 mi WSW 3.5 mph - N/A   Clear
5:56 PM 78.8 °F 62.6 °F 57% 29.99 in 7.0 mi WSW 3.5 mph - N/A   Clear
6:15 PM 78.8 °F 64.4 °F 61% 29.99 in 10.0 mi WSW 3.5 mph - N/A   Clear
6:37 PM 77.0 °F 64.4 °F 65% 30.00 in 10.0 mi WSW 3.5 mph - N/A   Clear
6:55 PM 75.2 °F 62.6 °F 65% 30.00 in 7.0 mi Calm Calm - N/A   Clear
7:15 PM 73.4 °F 62.6 °F 69% 30.00 in 10.0 mi Calm Calm - N/A   Clear
7:16 PM 71.6 °F 62.6 °F 73% 30.00 in 10.0 mi Calm Calm - N/A   Clear
7:35 PM 69.8 °F 62.6 °F 78% 30.00 in 7.0 mi Calm Calm - N/A   Clear
7:58 PM 68.0 °F 64.4 °F 88% 30.00 in 10.0 mi Calm Calm - N/A   Clear
8:15 PM 66.2 °F 64.4 °F 94% 30.00 in 10.0 mi Calm Calm - N/A   Clear
8:35 PM 64.4 °F 64.4 °F 100% 30.01 in 10.0 mi Calm Calm - N/A   Clear
8:36 PM 64.4 °F 64.4 °F 100% 30.01 in 10.0 mi Calm Calm - N/A   Clear
8:55 PM 64.4 °F 64.4 °F 100% 30.02 in 10.0 mi Calm Calm - N/A   Clear
9:16 PM 62.6 °F 62.6 °F 100% 30.01 in 10.0 mi Calm Calm - N/A   Clear
9:35 PM 62.6 °F 62.6 °F 100% 30.02 in 10.0 mi Calm Calm - N/A   Clear
9:36 PM 62.6 °F 62.6 °F 100% 30.02 in 10.0 mi Calm Calm - N/A   Clear
9:55 PM 62.6 °F 62.6 °F 100% 30.02 in 10.0 mi Calm Calm - N/A   Clear
9:56 PM 62.6 °F 62.6 °F 100% 30.02 in 10.0 mi Calm Calm - N/A   Clear
10:36 PM 62.6 °F 62.6 °F 100% 30.02 in 10.0 mi Calm Calm - N/A   Clear
10:55 PM 62.6 °F 62.6 °F 100% 30.03 in 10.0 mi Calm Calm - N/A   Clear
11:15 PM 60.8 °F 60.8 °F 100% 30.03 in 2.0 mi Calm Calm - N/A   Clear
11:16 PM 60.8 °F 60.8 °F 100% 30.03 in 1.5 mi Calm Calm - N/A   Scattered Clouds
11:39 PM 62.6 °F 62.6 °F 100% 30.03 in 10.0 mi Calm Calm - N/A   Scattered Clouds
11:56 PM 62.6 °F 62.6 °F 100% 30.03 in 10.0 mi Calm Calm - N/A   Clear